Location: Newark
(52.3735°N, 16.9806°E)
Time: 13:42:28
(UTC+00:00)

Envisat - Pass Details

Date: 19 September 2021
Orbit: 764 x 766 km, 98.2° (Epoch: 23 October)

Event Time Altitude Azimuth Distance (km) Brightness Sun altitude
Rises 02:38:57 0° 27° (NNE) 3,246 7.2 -17.5°
Reaches altitude 10° 02:42:20 10° 51° (NE) 2,313 6.7 -17.1°
Maximum altitude 02:45:11 15° 85° (E) 1,983 6.1 -16.7°
Drops below altitude 10° 02:48:02 10° 120° (ESE) 2,302 5.9 -16.3°
Sets 02:51:22 0° 143° (SE) 3,221 6.4 -15.8°
